sat.trackr.live / text

‹ back to catalog

STARLINK-6152

NORAD 57121 · 2023-090W

PAYLOAD ACTIVE UNKNOWN

§ Identity

Operator
Country
US
Launch date
2023-06-23
Launch site
AFETR
Launch vehicle
Mass (kg)
RCS (m²)

Purposes: comms

External: N2YO · Heavens-Above · Gunter

§ Orbital elements

Epoch: 2026-05-24T21:44:44.083392Z

Period
94.32 min
Inclination
43.0043°
Eccentricity
0.0001584
Mean motion
15.26727885 rev/d
Perigee alt
484.5 km
Apogee alt
486.7 km
Semi-major
6,863.7 km
B*
-7.7758e-5
RAAN
210.7040°
Arg perigee
293.9872°
Mean anomaly
66.0814°
Rev number
16,180

§ Raw data

STARLINK-61521 57121U 23090W   26144.90606578 -.00002344  00000+0 -77758-4 0  99902 57121  43.0043 210.7040 0001584 293.9872  66.0814 15.26727885161806

JSON: /api/v1/satellites/57121 · /tle

For live sub-satellite position, see the globe view (requires WebGL).

§ Visibility from observer

Set your observer location to see the next 7 days of passes ≥ 10°. The values pass through the URL so the page stays shareable.

No JS? Fill the form by hand. The geolocation button needs JavaScript.